AAL628 KORD-KEWR

Flight info

Callsign AAL628
Flight time 1h 27m
Altitude 39000
Route DUFEE ELX HAAKK DOXXY SOSIC KEEHO J584 SLT FQM3
Aircraft B772/H-SDE2E3FGHIJ5LORVWXY/LB1D1

Departure

Time 2026-05-06 18:18
Airport Chicago O'Hare International Airport (KORD)

Arrival

Time 2026-05-06 19:45
Airport Newark Liberty International Airport (KEWR)
Time Latitude Longitude Altitude Speed Heading
2026-05-06 17:31 41.97386 -87.89217 682 ft 0 kts 71°
2026-05-06 18:03 41.97385 -87.89221 681 ft 2 kts 71°
2026-05-06 18:03 41.97380 -87.89240 681 ft 2 kts 71°
2026-05-06 18:03 41.97376 -87.89260 681 ft 2 kts 85°
2026-05-06 18:03 41.97377 -87.89280 681 ft 2 kts 104°
2026-05-06 18:04 41.97382 -87.89298 681 ft 2 kts 120°
2026-05-06 18:04 41.97391 -87.89314 681 ft 2 kts 138°
2026-05-06 18:04 41.97403 -87.89326 681 ft 2 kts 154°
2026-05-06 18:04 41.97417 -87.89333 681 ft 2 kts 171°
2026-05-06 18:05 41.97424 -87.89333 681 ft 0 kts 178°
2026-05-06 18:12 41.97421 -87.89333 681 ft 1 kts 178°
2026-05-06 18:13 41.97404 -87.89333 681 ft 6 kts 178°
2026-05-06 18:13 41.97339 -87.89330 681 ft 11 kts 179°
2026-05-06 18:13 41.97259 -87.89329 681 ft 11 kts 179°
2026-05-06 18:13 41.97199 -87.89303 681 ft 9 kts 116°
2026-05-06 18:14 41.97195 -87.89197 681 ft 12 kts 90°
2026-05-06 18:14 41.97195 -87.89070 681 ft 14 kts 89°
2026-05-06 18:14 41.97197 -87.88923 681 ft 16 kts 89°
2026-05-06 18:14 41.97197 -87.88763 681 ft 16 kts 90°
2026-05-06 18:15 41.97196 -87.88599 681 ft 18 kts 90°
2026-05-06 18:15 41.97195 -87.88426 681 ft 14 kts 91°
2026-05-06 18:15 41.97195 -87.88280 681 ft 16 kts 89°
2026-05-06 18:15 41.97197 -87.88123 681 ft 14 kts 89°
2026-05-06 18:16 41.97164 -87.88040 681 ft 11 kts 158°
2026-05-06 18:16 41.97119 -87.88032 681 ft 0 kts 178°
2026-05-06 18:16 41.97116 -87.88032 681 ft 1 kts 178°
2026-05-06 18:17 41.97068 -87.88030 681 ft 14 kts 178°
2026-05-06 18:17 41.96986 -87.88029 681 ft 10 kts 180°
2026-05-06 18:17 41.96942 -87.88032 681 ft 6 kts 188°
2026-05-06 18:17 41.96912 -87.88067 681 ft 13 kts 225°
2026-05-06 18:18 41.96708 -87.88309 681 ft 77 kts 223°
2026-05-06 18:18 41.96100 -87.89030 684 ft 149 kts 221°
2026-05-06 18:18 41.95255 -87.89944 1262 ft 159 kts 224°
2026-05-06 18:18 41.94399 -87.90826 2143 ft 155 kts 222°
2026-05-06 18:19 41.93505 -87.91712 2545 ft 166 kts 221°
2026-05-06 18:19 41.92528 -87.92696 2823 ft 190 kts 222°
2026-05-06 18:19 41.91428 -87.93900 3191 ft 213 kts 223°
2026-05-06 18:19 41.90197 -87.95064 3852 ft 226 kts 207°
2026-05-06 18:20 41.88590 -87.95447 4369 ft 251 kts 177°
2026-05-06 18:20 41.86875 -87.94657 4859 ft 273 kts 149°
2026-05-06 18:20 41.85508 -87.92849 4970 ft 282 kts 123°
2026-05-06 18:20 41.84874 -87.90378 4973 ft 281 kts 94°
2026-05-06 18:21 41.85194 -87.87718 5368 ft 295 kts 67°
2026-05-06 18:21 41.85963 -87.85263 6592 ft 285 kts 65°
2026-05-06 18:21 41.86750 -87.82835 7487 ft 287 kts 65°
2026-05-06 18:21 41.87553 -87.80363 8212 ft 294 kts 64°
2026-05-06 18:22 41.88370 -87.77843 9031 ft 297 kts 64°
2026-05-06 18:22 41.89196 -87.75294 9764 ft 301 kts 64°
2026-05-06 18:22 41.90039 -87.72694 10366 ft 309 kts 64°
2026-05-06 18:22 41.90919 -87.69979 10637 ft 329 kts 64°
2026-05-06 18:23 41.91868 -87.67050 10896 ft 350 kts 65°
2026-05-06 18:23 41.92867 -87.63960 11240 ft 368 kts 65°
2026-05-06 18:23 41.93901 -87.60756 11572 ft 386 kts 65°
2026-05-06 18:23 41.94998 -87.57350 11961 ft 403 kts 65°
2026-05-06 18:24 41.96116 -87.53875 12695 ft 411 kts 65°
2026-05-06 18:24 41.97271 -87.50277 13430 ft 419 kts 65°
2026-05-06 18:24 41.98443 -87.46620 14203 ft 428 kts 65°
2026-05-06 18:24 41.99616 -87.42956 15031 ft 434 kts 65°
2026-05-06 18:25 42.00812 -87.39214 15952 ft 439 kts 64°
2026-05-06 18:25 42.02031 -87.35396 16820 ft 445 kts 65°
2026-05-06 18:25 42.03262 -87.31536 17622 ft 453 kts 65°
2026-05-06 18:25 42.04513 -87.27605 18384 ft 460 kts 65°
2026-05-06 18:26 42.05772 -87.23642 19140 ft 467 kts 65°
2026-05-06 18:26 42.07062 -87.19575 19813 ft 477 kts 65°
2026-05-06 18:26 42.08367 -87.15457 20562 ft 484 kts 66°
2026-05-06 18:26 42.09701 -87.11227 21336 ft 490 kts 66°
2026-05-06 18:27 42.10768 -87.06905 22005 ft 498 kts 76°
2026-05-06 18:27 42.11355 -87.02251 22658 ft 505 kts 86°
2026-05-06 18:27 42.11587 -86.97509 23330 ft 510 kts 89°
2026-05-06 18:27 42.11766 -86.92710 24015 ft 517 kts 89°
2026-05-06 18:28 42.11942 -86.87819 24621 ft 525 kts 89°
2026-05-06 18:28 42.12120 -86.82855 25235 ft 532 kts 89°
2026-05-06 18:28 42.12295 -86.77914 25902 ft 537 kts 89°
2026-05-06 18:28 42.12472 -86.72875 26503 ft 544 kts 89°
2026-05-06 18:29 42.12650 -86.67733 27076 ft 551 kts 89°
2026-05-06 18:29 42.12828 -86.62566 27656 ft 557 kts 89°
2026-05-06 18:29 42.13007 -86.57282 28215 ft 563 kts 89°
2026-05-06 18:29 42.13183 -86.52035 28746 ft 569 kts 89°
2026-05-06 18:30 42.13363 -86.46577 29205 ft 577 kts 89°
2026-05-06 18:30 42.13542 -86.41084 29801 ft 580 kts 89°
2026-05-06 18:30 42.13720 -86.35572 30476 ft 582 kts 89°
2026-05-06 18:30 42.13894 -86.30064 31099 ft 583 kts 89°
2026-05-06 18:31 42.14064 -86.24644 31636 ft 584 kts 90°
2026-05-06 18:31 42.14233 -86.19119 32208 ft 585 kts 89°
2026-05-06 18:31 42.14399 -86.13639 32663 ft 588 kts 90°
2026-05-06 18:31 42.14508 -86.08124 33098 ft 590 kts 93°
2026-05-06 18:32 42.14472 -86.02573 33617 ft 591 kts 93°
2026-05-06 18:32 42.14418 -85.97073 34207 ft 590 kts 93°
2026-05-06 18:32 42.14364 -85.91512 34987 ft 584 kts 94°
2026-05-06 18:32 42.14312 -85.86137 35745 ft 579 kts 93°
2026-05-06 18:33 42.14259 -85.80736 36440 ft 573 kts 93°
2026-05-06 18:33 42.14207 -85.75395 36994 ft 571 kts 93°
2026-05-06 18:33 42.14153 -85.69988 37403 ft 572 kts 92°
2026-05-06 18:33 42.14098 -85.64669 37778 ft 573 kts 93°
2026-05-06 18:34 42.14042 -85.59301 38285 ft 570 kts 93°
2026-05-06 18:34 42.13986 -85.54036 38883 ft 566 kts 93°
2026-05-06 18:34 42.13864 -85.43348 38996 ft 571 kts 93°
2026-05-06 18:35 42.13736 -85.32698 38984 ft 567 kts 94°
2026-05-06 18:35 42.13598 -85.22025 38976 ft 569 kts 93°
2026-05-06 18:36 42.13450 -85.11311 38979 ft 569 kts 94°
2026-05-06 18:36 42.13291 -85.00629 38982 ft 568 kts 93°
2026-05-06 18:37 42.13104 -84.90039 38986 ft 569 kts 94°
2026-05-06 18:37 42.12905 -84.79366 38979 ft 570 kts 94°
2026-05-06 18:38 42.12696 -84.68694 38985 ft 569 kts 94°
2026-05-06 18:38 42.12480 -84.58086 38987 ft 568 kts 94°
2026-05-06 18:39 42.12372 -84.47487 38968 ft 571 kts 87°
2026-05-06 18:40 42.14001 -84.31629 38951 ft 569 kts 82°
2026-05-06 18:40 42.15188 -84.21092 38958 ft 569 kts 82°
2026-05-06 18:41 42.16365 -84.10513 38953 ft 569 kts 82°
2026-05-06 18:41 42.17517 -84.00058 38952 ft 568 kts 83°
2026-05-06 18:42 42.18670 -83.89480 38947 ft 571 kts 83°
2026-05-06 18:42 42.19812 -83.78898 38949 ft 568 kts 83°
2026-05-06 18:43 42.20936 -83.68395 38972 ft 570 kts 83°
2026-05-06 18:43 42.22064 -83.57748 38983 ft 570 kts 83°
2026-05-06 18:44 42.22239 -83.47196 38970 ft 563 kts 99°
2026-05-06 18:44 42.20722 -83.36903 38968 ft 560 kts 108°
2026-05-06 18:45 42.18883 -83.26637 38969 ft 556 kts 109°
2026-05-06 18:45 42.17042 -83.16496 38946 ft 559 kts 109°
2026-05-06 18:46 42.15187 -83.06351 38969 ft 559 kts 109°
2026-05-06 18:46 42.13311 -82.96170 38969 ft 560 kts 109°
2026-05-06 18:47 42.11433 -82.86037 38964 ft 558 kts 109°
2026-05-06 18:47 42.09533 -82.75854 38966 ft 562 kts 109°
2026-05-06 18:48 42.07618 -82.65636 38953 ft 560 kts 109°
2026-05-06 18:48 42.05700 -82.55464 38937 ft 561 kts 109°
2026-05-06 18:49 42.03758 -82.45222 38978 ft 563 kts 109°
2026-05-06 18:49 42.01814 -82.35023 38958 ft 564 kts 109°
2026-05-06 18:50 41.99861 -82.24818 38926 ft 558 kts 110°
2026-05-06 18:50 41.97889 -82.14593 38948 ft 567 kts 110°
2026-05-06 18:51 41.95916 -82.04394 38947 ft 562 kts 110°
2026-05-06 18:51 41.93927 -81.94180 38941 ft 568 kts 110°
2026-05-06 18:52 41.91956 -81.83939 38918 ft 567 kts 107°
2026-05-06 18:52 41.90850 -81.73345 38933 ft 576 kts 101°
2026-05-06 18:53 41.89920 -81.62630 38955 ft 573 kts 100°
2026-05-06 18:53 41.88974 -81.51959 38946 ft 577 kts 100°
2026-05-06 18:54 41.88013 -81.41277 38950 ft 575 kts 101°
2026-05-06 18:54 41.87038 -81.30592 38934 ft 577 kts 102°
2026-05-06 18:55 41.86053 -81.19927 38931 ft 575 kts 102°
2026-05-06 18:55 41.85056 -81.09276 38934 ft 579 kts 101°
2026-05-06 18:56 41.84047 -80.98590 38932 ft 577 kts 102°
2026-05-06 18:56 41.83026 -80.87894 38948 ft 579 kts 101°
2026-05-06 18:57 41.81994 -80.77189 38960 ft 577 kts 101°
2026-05-06 18:57 41.80954 -80.66512 38945 ft 580 kts 101°
2026-05-06 18:58 41.79901 -80.55808 38939 ft 579 kts 102°
2026-05-06 18:58 41.78841 -80.45133 38936 ft 580 kts 102°
2026-05-06 18:59 41.77763 -80.34390 38940 ft 578 kts 102°
2026-05-06 18:59 41.76679 -80.23691 38905 ft 580 kts 102°
2026-05-06 19:00 41.75578 -80.12929 38905 ft 580 kts 102°
2026-05-06 19:00 41.74475 -80.02242 38904 ft 582 kts 102°
2026-05-06 19:01 41.73356 -79.91497 38896 ft 581 kts 101°
2026-05-06 19:01 41.72230 -79.80790 38895 ft 580 kts 102°
2026-05-06 19:02 41.71094 -79.70089 38882 ft 583 kts 102°
2026-05-06 19:02 41.69948 -79.59381 38915 ft 578 kts 101°
2026-05-06 19:03 41.68795 -79.48717 38890 ft 581 kts 102°
2026-05-06 19:03 41.67632 -79.38045 38895 ft 581 kts 102°
2026-05-06 19:04 41.66454 -79.27339 38870 ft 581 kts 103°
2026-05-06 19:04 41.65264 -79.16615 38877 ft 579 kts 103°
2026-05-06 19:05 41.64070 -79.05961 38872 ft 584 kts 102°
2026-05-06 19:05 41.62860 -78.95245 38866 ft 581 kts 102°
2026-05-06 19:06 41.61641 -78.84551 38859 ft 584 kts 102°
2026-05-06 19:06 41.60412 -78.73852 38874 ft 581 kts 102°
2026-05-06 19:07 41.59174 -78.63171 38860 ft 580 kts 102°
2026-05-06 19:07 41.57932 -78.52537 38868 ft 577 kts 103°
2026-05-06 19:07 41.57320 -78.47316 38887 ft 562 kts 102°
2026-05-06 19:08 41.56717 -78.42179 38900 ft 546 kts 102°
2026-05-06 19:08 41.56129 -78.37207 38735 ft 536 kts 102°
2026-05-06 19:08 41.55547 -78.32323 38195 ft 534 kts 103°
2026-05-06 19:08 41.54957 -78.27398 37256 ft 542 kts 103°
2026-05-06 19:09 41.54350 -78.22356 36373 ft 548 kts 103°
2026-05-06 19:09 41.53743 -78.17317 35686 ft 549 kts 103°
2026-05-06 19:09 41.53142 -78.12347 35164 ft 546 kts 103°
2026-05-06 19:09 41.52536 -78.07335 34570 ft 545 kts 104°
2026-05-06 19:10 41.51924 -78.02314 33898 ft 546 kts 104°
2026-05-06 19:10 41.51318 -77.97357 33185 ft 549 kts 104°
2026-05-06 19:10 41.50653 -77.92313 32855 ft 540 kts 105°
2026-05-06 19:11 41.49248 -77.82453 32848 ft 549 kts 105°
2026-05-06 19:11 41.47825 -77.72503 32844 ft 546 kts 105°
2026-05-06 19:12 41.46395 -77.62535 32837 ft 545 kts 105°
2026-05-06 19:12 41.44952 -77.52531 32838 ft 546 kts 105°
2026-05-06 19:13 41.43520 -77.42648 32852 ft 546 kts 105°
2026-05-06 19:13 41.42054 -77.32597 32827 ft 545 kts 106°
2026-05-06 19:14 41.40613 -77.22759 32542 ft 537 kts 105°
2026-05-06 19:14 41.39883 -77.17812 31713 ft 542 kts 105°
2026-05-06 19:14 41.39156 -77.12897 30969 ft 544 kts 106°
2026-05-06 19:14 41.38424 -77.07961 30322 ft 543 kts 106°
2026-05-06 19:15 41.37692 -77.03031 29871 ft 537 kts 106°
2026-05-06 19:15 41.36966 -76.98156 29393 ft 532 kts 105°
2026-05-06 19:15 41.36248 -76.93354 28884 ft 528 kts 105°
2026-05-06 19:15 41.35533 -76.88590 28380 ft 524 kts 105°
2026-05-06 19:16 41.34814 -76.83805 27864 ft 519 kts 105°
2026-05-06 19:16 41.34097 -76.79150 27361 ft 514 kts 108°
2026-05-06 19:16 41.33082 -76.74644 26877 ft 505 kts 114°
2026-05-06 19:16 41.31923 -76.70229 26376 ft 501 kts 114°
2026-05-06 19:17 41.30769 -76.65897 25898 ft 497 kts 115°
2026-05-06 19:17 41.29605 -76.61541 25402 ft 493 kts 115°
2026-05-06 19:17 41.28473 -76.57315 24933 ft 489 kts 114°
2026-05-06 19:17 41.27335 -76.53072 24475 ft 485 kts 114°
2026-05-06 19:18 41.26195 -76.48829 23999 ft 482 kts 114°
2026-05-06 19:18 41.25066 -76.44634 23510 ft 478 kts 114°
2026-05-06 19:18 41.23956 -76.40517 23049 ft 475 kts 114°
2026-05-06 19:18 41.22834 -76.36363 22567 ft 471 kts 114°
2026-05-06 19:19 41.21727 -76.32272 22084 ft 468 kts 114°
2026-05-06 19:19 41.20623 -76.28199 21596 ft 464 kts 114°
2026-05-06 19:19 41.19540 -76.24210 21104 ft 460 kts 114°
2026-05-06 19:19 41.18465 -76.20256 20644 ft 456 kts 114°
2026-05-06 19:20 41.17385 -76.16289 20152 ft 452 kts 114°
2026-05-06 19:20 41.16317 -76.12377 19670 ft 447 kts 114°
2026-05-06 19:20 41.15243 -76.08445 19184 ft 443 kts 114°
2026-05-06 19:20 41.14204 -76.04648 18827 ft 435 kts 114°
2026-05-06 19:21 41.13200 -76.00977 18815 ft 418 kts 114°
2026-05-06 19:21 41.12212 -75.97376 18420 ft 415 kts 115°
2026-05-06 19:21 41.11200 -75.93704 17616 ft 422 kts 115°
2026-05-06 19:21 41.10194 -75.90057 17040 ft 422 kts 114°
2026-05-06 19:22 41.09194 -75.86431 16588 ft 418 kts 115°
2026-05-06 19:22 41.08199 -75.82828 16143 ft 414 kts 114°
2026-05-06 19:22 41.07214 -75.79267 15689 ft 410 kts 115°
2026-05-06 19:22 41.06237 -75.75737 15253 ft 406 kts 114°
2026-05-06 19:23 41.05268 -75.72244 14807 ft 403 kts 115°
2026-05-06 19:23 41.04311 -75.68794 14380 ft 399 kts 115°
2026-05-06 19:23 41.03349 -75.65335 13939 ft 395 kts 115°
2026-05-06 19:23 41.02410 -75.61965 13495 ft 391 kts 115°
2026-05-06 19:24 41.01469 -75.58588 13084 ft 387 kts 115°
2026-05-06 19:24 41.00546 -75.55276 12980 ft 373 kts 114°
2026-05-06 19:24 40.99663 -75.52110 12969 ft 362 kts 115°
2026-05-06 19:24 40.98777 -75.48952 12603 ft 373 kts 115°
2026-05-06 19:25 40.97876 -75.45746 12014 ft 376 kts 115°
2026-05-06 19:25 40.96965 -75.42496 11624 ft 372 kts 114°
2026-05-06 19:25 40.96075 -75.39317 11320 ft 364 kts 115°
2026-05-06 19:25 40.95204 -75.36213 11052 ft 357 kts 114°
2026-05-06 19:26 40.94346 -75.33160 10788 ft 351 kts 115°
2026-05-06 19:26 40.93497 -75.30148 10507 ft 345 kts 115°
2026-05-06 19:26 40.92659 -75.27177 10246 ft 339 kts 115°
2026-05-06 19:26 40.91843 -75.24288 9989 ft 334 kts 115°
2026-05-06 19:27 40.91039 -75.21446 9718 ft 329 kts 115°
2026-05-06 19:27 40.90234 -75.18603 9422 ft 325 kts 115°
2026-05-06 19:27 40.89444 -75.15816 9156 ft 321 kts 115°
2026-05-06 19:27 40.88662 -75.13059 8865 ft 316 kts 115°
2026-05-06 19:28 40.87899 -75.10369 8614 ft 312 kts 115°
2026-05-06 19:28 40.87141 -75.07681 8369 ft 308 kts 115°
2026-05-06 19:28 40.86401 -75.05056 8134 ft 304 kts 116°
2026-05-06 19:28 40.85666 -75.02455 7899 ft 301 kts 115°
2026-05-06 19:29 40.84945 -74.99902 7673 ft 297 kts 115°
2026-05-06 19:29 40.84220 -74.97340 7417 ft 294 kts 115°
2026-05-06 19:29 40.83504 -74.94814 7195 ft 292 kts 116°
2026-05-06 19:29 40.82792 -74.92306 7002 ft 290 kts 115°
2026-05-06 19:30 40.82102 -74.89812 6982 ft 289 kts 115°
2026-05-06 19:30 40.81416 -74.87301 6986 ft 291 kts 113°
2026-05-06 19:30 40.81057 -74.84672 6876 ft 297 kts 90°
2026-05-06 19:30 40.81529 -74.82011 6635 ft 298 kts 70°
2026-05-06 19:31 40.82311 -74.79480 6392 ft 295 kts 68°
2026-05-06 19:31 40.83098 -74.77002 6154 ft 293 kts 68°
2026-05-06 19:31 40.84663 -74.72080 5661 ft 288 kts 68°
2026-05-06 19:32 40.85457 -74.69614 5409 ft 286 kts 68°
2026-05-06 19:32 40.86235 -74.67226 5189 ft 283 kts 68°
2026-05-06 19:32 40.87020 -74.64829 5017 ft 278 kts 67°
2026-05-06 19:32 40.87775 -74.62538 4979 ft 270 kts 68°
2026-05-06 19:33 40.88528 -74.60256 4998 ft 270 kts 68°
2026-05-06 19:33 40.89274 -74.57976 4987 ft 270 kts 70°
2026-05-06 19:33 40.89833 -74.55576 4981 ft 271 kts 77°
2026-05-06 19:33 40.90320 -74.53162 4994 ft 270 kts 77°
2026-05-06 19:34 40.90799 -74.50771 4986 ft 269 kts 77°
2026-05-06 19:34 40.91276 -74.48370 4998 ft 271 kts 77°
2026-05-06 19:34 40.91753 -74.45966 4989 ft 269 kts 77°
2026-05-06 19:34 40.92233 -74.43560 4992 ft 268 kts 77°
2026-05-06 19:35 40.92709 -74.41157 4992 ft 269 kts 77°
2026-05-06 19:35 40.93176 -74.38792 4992 ft 269 kts 77°
2026-05-06 19:35 40.93664 -74.36371 4990 ft 269 kts 77°
2026-05-06 19:35 40.94146 -74.33988 4982 ft 269 kts 78°
2026-05-06 19:36 40.94630 -74.31593 4786 ft 272 kts 78°
2026-05-06 19:36 40.95120 -74.29162 4541 ft 271 kts 78°
2026-05-06 19:36 40.95610 -74.26742 4293 ft 271 kts 78°
2026-05-06 19:36 40.96104 -74.24347 4034 ft 269 kts 78°
2026-05-06 19:37 40.96444 -74.22021 3986 ft 245 kts 96°
2026-05-06 19:37 40.96092 -74.19962 3993 ft 218 kts 117°
2026-05-06 19:37 40.95582 -74.18090 3977 ft 213 kts 117°
2026-05-06 19:37 40.95094 -74.16272 3981 ft 208 kts 117°
2026-05-06 19:38 40.94482 -74.14572 3986 ft 197 kts 140°
2026-05-06 19:38 40.93430 -74.13571 3981 ft 184 kts 162°
2026-05-06 19:38 40.92271 -74.12815 3984 ft 183 kts 163°
2026-05-06 19:38 40.91122 -74.12077 3915 ft 186 kts 163°
2026-05-06 19:39 40.89954 -74.11323 3670 ft 183 kts 163°
2026-05-06 19:39 40.88846 -74.10605 3451 ft 174 kts 164°
2026-05-06 19:39 40.87772 -74.09913 3236 ft 170 kts 164°
2026-05-06 19:39 40.86706 -74.09228 3029 ft 167 kts 164°
2026-05-06 19:40 40.85698 -74.08575 2980 ft 154 kts 164°
2026-05-06 19:40 40.84761 -74.07973 2977 ft 150 kts 165°
2026-05-06 19:40 40.83799 -74.07422 2980 ft 146 kts 174°
2026-05-06 19:40 40.82816 -74.07253 2973 ft 143 kts 186°
2026-05-06 19:41 40.81815 -74.07212 2886 ft 142 kts 187°
2026-05-06 19:41 40.80826 -74.07175 2752 ft 139 kts 187°
2026-05-06 19:41 40.79865 -74.07140 2604 ft 138 kts 186°
2026-05-06 19:41 40.78901 -74.07104 2459 ft 138 kts 186°
2026-05-06 19:42 40.77935 -74.07069 2305 ft 136 kts 185°
2026-05-06 19:42 40.76969 -74.07036 2138 ft 141 kts 185°
2026-05-06 19:42 40.76024 -74.07037 1967 ft 126 kts 195°
2026-05-06 19:42 40.75246 -74.07426 1838 ft 122 kts 207°
2026-05-06 19:43 40.74456 -74.07931 1657 ft 125 kts 209°
2026-05-06 19:43 40.73688 -74.08446 1495 ft 124 kts 209°
2026-05-06 19:43 40.72904 -74.08975 1335 ft 127 kts 209°
2026-05-06 19:43 40.72117 -74.09510 1164 ft 130 kts 210°
2026-05-06 19:44 40.71320 -74.10114 1017 ft 133 kts 216°
2026-05-06 19:44 40.70634 -74.10925 831 ft 131 kts 228°
2026-05-06 19:44 40.70184 -74.11946 635 ft 131 kts 247°
2026-05-06 19:44 40.70000 -74.13142 462 ft 136 kts 261°
2026-05-06 19:45 40.70029 -74.14423 268 ft 139 kts 271°
2026-05-06 19:45 40.70125 -74.15678 87 ft 137 kts 271°
2026-05-06 19:45 40.70195 -74.16797 33 ft 92 kts 275°
2026-05-06 19:45 40.70236 -74.17385 33 ft 43 kts 275°
2026-05-06 19:46 40.70225 -74.17718 33 ft 19 kts 247°
2026-05-06 19:46 40.70179 -74.17844 33 ft 5 kts 243°
2026-05-06 19:46 40.70173 -74.17861 33 ft 0 kts 243°
2026-05-06 19:47 40.70172 -74.17862 33 ft 0 kts 243°
2026-05-06 19:47 40.70172 -74.17863 33 ft 0 kts 243°
2026-05-06 19:48 40.70166 -74.17868 33 ft 2 kts 200°
2026-05-06 19:48 40.70155 -74.17858 33 ft 1 kts 109°
2026-05-06 19:48 40.70152 -74.17851 33 ft 3 kts 125°
2026-05-06 19:49 40.70115 -74.17871 33 ft 7 kts 214°
2026-05-06 19:49 40.70080 -74.17841 33 ft 8 kts 109°
2026-05-06 19:49 40.70070 -74.17747 33 ft 12 kts 95°
2026-05-06 19:49 40.70063 -74.17625 33 ft 14 kts 95°
2026-05-06 19:50 40.70052 -74.17487 33 ft 16 kts 96°
2026-05-06 19:50 40.70041 -74.17334 33 ft 17 kts 94°
2026-05-06 19:50 40.70031 -74.17168 33 ft 18 kts 95°
2026-05-06 19:50 40.70020 -74.16990 33 ft 20 kts 95°
2026-05-06 19:51 40.70007 -74.16826 33 ft 14 kts 97°
2026-05-06 19:51 40.69985 -74.16764 33 ft 7 kts 167°
2026-05-06 19:51 40.69925 -74.16761 33 ft 9 kts 183°
2026-05-06 19:51 40.69834 -74.16775 33 ft 20 kts 195°
2026-05-06 19:52 40.69656 -74.16878 33 ft 30 kts 206°
2026-05-06 19:52 40.69475 -74.16994 33 ft 28 kts 206°
2026-05-06 19:52 40.69297 -74.17108 33 ft 28 kts 206°
2026-05-06 19:52 40.69120 -74.17218 33 ft 28 kts 205°
2026-05-06 19:53 40.68943 -74.17331 33 ft 28 kts 206°
2026-05-06 19:53 40.68768 -74.17443 33 ft 27 kts 206°
2026-05-06 19:53 40.68594 -74.17553 33 ft 27 kts 206°
2026-05-06 19:53 40.68427 -74.17659 33 ft 23 kts 205°
2026-05-06 19:54 40.68327 -74.17728 33 ft 10 kts 226°